This is the latest recevied weather packets stored in our database for station/object IT9CNT. If no packets are shown the sender has not sent any weather packets the latest 1 day(s).
| Time | Temp. | Humidity | Pressure | Rain* | Wind** | Luminosity | Snow |
|---|---|---|---|---|---|---|---|
| 1778031123 | 16.67° C | 76% | 1011.4 hPa | 0 mm | 2.24 m/s, 78° | - | - |
| 1778031063 | 16.67° C | 76% | 1011.4 hPa | 0 mm | 2.24 m/s, 83° | - | - |
| 1778031003 | 16.67° C | 76% | 1011.6 hPa | 0 mm | 2.24 m/s, 84° | - | - |
| 1778030943 | 16.67° C | 76% | 1011.5 hPa | 0 mm | 1.79 m/s, 77° | - | - |
| 1778030883 | 16.67° C | 76% | 1011.4 hPa | 0 mm | 1.79 m/s, 77° | - | - |
| 1778030823 | 16.67° C | 76% | 1011.4 hPa | 0 mm | 1.79 m/s, 74° | - | - |
| 1778030763 | 16.67° C | 76% | 1011.3 hPa | 0 mm | 1.79 m/s, 72° | - | - |
| 1778030703 | 16.67° C | 76% | 1011.5 hPa | 0 mm | 1.34 m/s, 68° | - | - |
| 1778030643 | 16.67° C | 75% | 1011.7 hPa | 0 mm | 1.34 m/s, 56° | - | - |
| 1778030583 | 16.67° C | 75% | 1011.7 hPa | 0 mm | 1.79 m/s, 50° | - | - |
| 1778030523 | 16.67° C | 75% | 1011.4 hPa | 0 mm | 1.79 m/s, 57° | - | - |
| 1778030463 | 16.11° C | 75% | 1011.7 hPa | 0 mm | 1.79 m/s, 53° | - | - |
| 1778030403 | 16.11° C | 75% | 1011.7 hPa | 0 mm | 1.79 m/s, 55° | - | - |
| 1778030343 | 16.11° C | 75% | 1011.6 hPa | 0 mm | 2.24 m/s, 62° | - | - |
| 1778030283 | 16.11° C | 75% | 1011.7 hPa | 0 mm | 2.24 m/s, 66° | - | - |
| 1778030223 | 16.11° C | 75% | 1011.6 hPa | 0 mm | 2.24 m/s, 72° | - | - |
| 1778030163 | 16.11° C | 75% | 1011.5 hPa | 0 mm | 2.24 m/s, 71° | - | - |
| 1778030103 | 16.11° C | 75% | 1011.7 hPa | 0 mm | 2.24 m/s, 70° | - | - |
| 1778030043 | 16.11° C | 75% | 1011.5 hPa | 0 mm | 2.24 m/s, 78° | - | - |
| 1778029983 | 16.11° C | 75% | 1011.5 hPa | 0 mm | 2.24 m/s, 81° | - | - |
| 1778029923 | 16.11° C | 75% | 1011.5 hPa | 0 mm | 1.79 m/s, 81° | - | - |
| 1778029863 | 16.67° C | 75% | 1011.7 hPa | 0 mm | 2.24 m/s, 87° | - | - |
| 1778029803 | 16.11° C | 75% | 1011.7 hPa | 0 mm | 2.24 m/s, 88° | - | - |
| 1778029743 | 16.11° C | 75% | 1011.9 hPa | 0 mm | 2.24 m/s, 90° | - | - |
| 1778029683 | 16.11° C | 75% | 1011.8 hPa | 0 mm | 2.24 m/s, 86° | - | - |
* Rain latest hour (hover to see other rain measurements)
** Current wind speed in m/s (hover to see current wind gust speed)